Flight Information

DEPARTURE
BOZEMAN, MT
Elevation:
4473
Runways:
3/21 - 2650x75 - ASPH-G
11G/29G - 2802x80 - TURF-G
11/29 - 5050x75 - ASPH-G
12/30 - 8994x150 - ASPH-G
Tower:
118.2
DESTINATION
,
Elevation:
TPA:
1000 (est.)


6274.3 NM75° True-16° Var58° HDG

Flight Plan:
(click to file on line)

1. Type
2. Aircraft Identification
3. Aircraft Type / Special Equipment
4. True Airspeed
kts
5. Departure Airport
(ICAO code)
6. Arriving Airport
(ICAO code)
7. Cruising Altitude
ft
8. Alternate Airport
(ICAO code)
9. Route of Flight
10. Remarks


00:00:00 Departure ATIS: Destination ATIS:

Clearance Limit:
Route:
Altitude: Expect in minutes
Frequency:
Transponder: (7500 Hijack / 7600 Lost Comms / 7700 Emergency)


KBZN 261456Z 00000KT 10SM CLR 13/03 A3042 RMK AO2 SLP282 T01280033 58001
Time: 2022-06-26T14:56:00Z
1656256331
Winds: calm
Visibility: 10.0 sm
Clouds (AGL): CLR
Temperature: 12.8 C
Dew Point: 3.3 C
Pressure: 30.41929 in Hgbr


Notes:

Data extracted from FAA Digital Chart Supplement. Effective: 0901Z Thursday, 27 JAN 2022 to 0900z Thursday, 24 MAR 2022
Current ATIS data is provided courtisy of PilotEdge.